This demonstration page uses our WeatherBlox Daily Observations layout. Learn more.

Left ArrowRight Arrow

41.12389, -100.76542

Hourly Observations for August 12, 2022

Temp ( °F °C ) Dew Point ( °F °C ) Humidity (%) Winds ( mph kmh ) Pressure ( in mb ) Visibility ( mi km ) Precip ( " mm )
12:53 am 00:53 Clear 76 24.4 50 10 40 40 SE 10 17 30.04 1017 10 16 0.00 0.00
1:53 am 01:53 Clear 74 23.3 49 9.4 41 41 SSE 10 17 30.03 1017 10 16 0.00 0.00
2:53 am 02:53 Clear 74 23.3 47 8.3 38 38 SE 9 15 30.03 1017 10 16 0.00 0.00
3:53 am 03:53 Clear 72 22.2 46 7.8 40 40 S 7 11 30.03 1017 10 16 0.00 0.00
4:53 am 04:53 Clear 69 20.6 47 8.3 45 45 SSE 8 13 30.04 1017 10 16 0.00 0.00
5:53 am 05:53 Clear 69 20.6 46 7.8 44 44 SSE 5 7 30.04 1017 10 16 0.00 0.00
6:53 am 06:53 Sunny 68 20 44 6.7 42 42 Calm 30.04 1017 10 16 0.00 0.00
7:53 am 07:53 Sunny 69 20.6 46 7.8 44 44 SSW 5 7 30.04 1017 10 16 0.00 0.00
8:53 am 08:53 Sunny 73 22.8 49 9.4 42 42 Calm 30.04 1017 10 16 0.00 0.00
9:53 am 09:53 Sunny 79 26.1 53 11.7 41 41 SW 9 15 30.03 1017 10 16 0.00 0.00
10:53 am 10:53 Sunny 87 30.6 56 13.3 35 35 SW 9 15 30.01 1016 10 16 0.00 0.00
11:53 am 11:53 Sunny 94 34.4 55 12.8 27 27 SW 13 20 29.98 1015 10 16 0.00 0.00
12:53 pm 12:53 Sunny 96 35.6 55 12.8 25 25 SSW 14 22 29.97 1015 10 16 0.00 0.00
1:53 pm 13:53 Sunny 99 37.2 56 13.3 24 24 SW 10 17 29.94 1014 10 16 0.00 0.00
2:53 pm 14:53 Sunny 99 37.2 54 12.2 22 22 SW 8 13 29.93 1014 10 16 0.00 0.00
3:53 pm 15:53 Sunny 100 37.8 53 11.7 21 21 SW 8 13 29.91 1013 10 16 0.00 0.00
4:53 pm 16:53 Sunny 100 37.8 54 12.2 22 22 SW 10 17 29.90 1013 10 16 0.00 0.00
5:53 pm 17:53 Sunny 100 37.8 55 12.8 23 23 W 7 11 29.89 1012 10 16 0.00 0.00
6:53 pm 18:53 Sunny 100 37.8 57 13.9 24 24 SSE 3 6 29.87 1012 10 16 0.00 0.00
7:53 pm 19:53 Mostly Sunny 93 33.9 61 16.1 35 35 SSE 5 7 29.88 1012 10 16 0.00 0.00
8:53 pm 20:53 Mostly Cloudy 88 31.1 52 11.1 29 29 SE 7 11 29.88 1012 10 16 0.00 0.00
9:53 pm 21:53 Clear 78 25.6 59 15 52 52 E 8 13 29.90 1012 10 16 0.00 0.00
10:53 pm 22:53 Clear 79 26.1 55 12.8 44 44 ESE 9 15 29.89 1012 10 16 0.00 0.00
11:53 pm 23:53 Clear 76 24.4 55 12.8 48 48 ESE 8 13 29.91 1013 10 16 0.00 0.00

Powered by AerisWeather